SAUDICOMSAT 6

Last updated on Fri Jun 19 2026 17:09:51 GMT+0000 (Coordinated Universal Time)

1 31121U 07012E 26170.14267797 .00000434 00000+0 92782-4 0 9999 2 31121 98.4099 137.6954 0070948 321.6173 37.9992 14.62560326 20472
UTC large
Height (km)
Speed (km/s)
/
Latitude / Longitude
Inclination (degrees)
Orbital Period (minutes)
Azimuth
Elevation
Range (km)
Doppler Factor

Next 0 passes for location: London (51.5072 / 0.1276)

Sorry there are no passes over London.
SAUDICOMSAT 6